Погода в Кыкере

Россия / Забайкальский край     53°10′07″N   115°49′49″E
темп.,
°C
ветер,
м/с
пор.,
м/с
влажн.,
%
обл.,
%
осадки,
мм/ч
давл.,
гПа
погр.,
м
19 апреля, пн
пн1900:00−7ссз22683 0.0 102256
03:00−9с22680 0.0 102454
06:00−10ссз22674 0.0 102633
09:00−5с1229100 0.0 1025841
12:00+1юз121460 0.0 10231638
15:00+3зюз26115 0.0 10192825
18:00+3з24150 0.0 10172393
21:00−3ююв1127100 0.0 101910
20 апреля, вт
вт2000:00−3в1132100 0.0 101718
03:00−5всв11396 0.0 101514
06:00−6вюв12435 0.0 101229
09:000ююв362729 0.0 1008396
12:00+8ююз352448 0.0 10061078
15:00+13юз13238 0.0 10021715
18:00+13сз242299 0.0 10032055
21:00+5с224181 0.0 100513
21 апреля, ср
ср2100:00+3ссз3650100 0.0 100797
03:00+2с2355100 0.1 100871
06:000с2265100 0.0 100728
09:00+4с345486 0.0 1006403
12:00+8с3250100 0.0 10051080
15:00+9ссз3444100 0.0 10051393
18:00+5с565969 0.0 1008779
21:00+1с4772100 0.0 1012532
22 апреля, чт
чт2200:00−2с3883100 0.0 1015413
03:00−2ссз4965100 0.0 1017600
06:00−4с4105997 0.0 1021603
09:00−2с5735100 0.0 1023830
12:00+2с46200 0.0 10241853
15:00+4с562198 0.0 10242237
18:00+3с552374 0.0 10272243
21:00−2ссв5930100 0.0 1033807
23 апреля, пт
пт2300:00−4св3939100 0.0 1037734
03:00−5ссв2537100 0.0 1040281
06:00−5с2639100 0.0 1042385
09:00−2с3425100 0.0 10421129
12:00+2с34160 0.0 10411961
15:00+4ссз35140 0.0 10392262
18:00+5ссз45160 0.0 10382087
21:00−1сз22300 0.0 104123